Theta_e
317 319 321 315 304 297 303 303 309 310 309 306 302 308 305 307 310 310 306 307 307 306 306 307 307 307 306 305 306 305 302 305 304 301 301 301 303 307 306 320 310 309 308 308
316 315 320 315 301 299 303 308 308 309 306 308 308 307 308 309 306 307 306 308 307 306 307 308 306 305 303 304 306 306 303 306 308 303 303 302 304 304 298 302 305 308 313 307
314 316 318 311 298 302 304 305 306 305 305 304 308 309 308 308 306 306 307 306 307 307 306 306 305 304 303 303 306 306 305 303 308 314 310 304 302 302 297 302 311 307 307 303
314 313 318 306 298 303 305 305 305 307 308 307 307 307 308 307 307 306 306 307 307 307 306 304 304 303 302 302 308 303 306 307 304 303 305 300 301 303 302 301 304 312 303 303
313 314 316 302 298 303 306 302 305 302 308 308 307 308 308 306 306 307 307 308 307 306 307 308 306 304 304 306 302 304 301 306 304 303 305 303 306 302 303 302 302 301 299 301
313 311 316 300 300 304 304 301 303 306 308 309 308 307 308 306 306 306 306 307 307 307 306 303 303 302 303 304 305 303 303 305 305 304 301 301 306 303 304 303 303 304 304 304
311 309 313 300 301 305 305 304 304 306 307 309 308 307 307 307 307 307 305 306 308 303 301 303 303 303 304 303 301 302 302 302 302 305 301 305 304 302 303 303 303 302 300 300
309 310 309 298 303 304 305 304 306 306 306 307 308 307 307 306 306 306 306 306 303 301 303 306 306 305 304 303 303 301 301 302 302 307 304 302 301 302 303 304 304 302 301 301
309 309 307 300 303 305 306 305 306 305 307 306 306 307 306 306 305 306 304 302 300 300 303 306 307 309 306 305 306 302 300 301 305 303 303 305 302 301 301 301 304 302 301 300
309 310 302 301 304 304 306 306 306 304 303 303 306 307 307 304 305 306 303 303 303 300 304 307 307 307 304 306 307 305 305 303 305 301 303 303 300 301 301 304 307 301 301 300
309 305 299 302 304 306 306 304 305 304 301 301 301 303 304 303 305 307 304 305 304 302 305 307 305 305 305 305 305 305 306 306 305 301 305 307 301 301 303 302 299 300 300 299
305 301 300 303 305 306 306 304 305 304 301 302 300 301 301 302 302 302 299 306 303 305 304 303 304 305 302 304 308 303 308 306 307 306 306 301 299 300 298 299 300 299 299 298
301 301 302 304 304 307 305 304 303 301 301 302 301 301 302 303 302 301 304 300 301 301 301 303 304 306 302 306 304 303 302 301 305 303 301 300 298 297 298 298 298 298 298 297
302 302 303 304 305 307 305 303 302 304 301 304 302 301 301 302 303 302 302 302 301 301 302 303 305 307 301 304 304 303 303 303 303 301 299 298 298 297 297 297 296 296 295 295
302 303 303 305 306 306 305 304 304 306 304 304 302 300 300 301 303 303 303 302 302 302 304 304 305 300 301 298 301 303 302 303 305 305 301 300 298 296 296 296 295 294 294 293
302 303 304 304 305 303 304 298 304 303 303 302 305 298 299 299 300 300 299 299 299 299 302 300 299 298 301 305 304 300 299 299 299 300 298 298 296 295 294 294 292 292 291 291
303 303 303 304 304 305 303 303 304 302 303 301 302 303 299 298 298 297 298 297 297 300 298 300 300 300 300 302 304 299 297 297 297 296 296 295 294 292 291 291 290 290 289 289
302 302 302 303 304 302 300 299 302 302 300 299 302 302 301 298 299 301 295 298 297 296 297 298 300 298 298 303 298 297 296 296 295 294 294 293 290 290 289 290 290 290 289 289
302 302 302 302 302 299 300 300 300 300 300 300 300 305 305 297 297 297 298 296 301 294 300 299 299 299 301 299 298 296 296 296 292 291 291 291 291 290 289 289 288 288 287 286
302 301 299 297 297 299 297 298 298 297 296 296 300 298 301 298 298 298 299 297 298 301 298 296 300 299 296 297 297 296 293 292 292 292 291 291 290 289 288 287 286 286 286 285
300 296 297 296 297 298 297 298 300 298 299 296 297 298 299 296 301 299 297 298 297 300 299 300 300 300 296 295 294 292 291 291 291 291 290 289 288 287 286 285 285 285 285 285
298 298 297 297 297 296 298 296 297 299 301 296 299 298 297 296 297 300 298 299 298 299 296 299 300 298 293 292 291 291 290 288 287 287 286 286 285 285 285 285 285 285 284 284
300 299 297 299 295 296 299 297 298 298 297 297 297 298 297 297 297 297 298 299 299 296 299 299 298 293 291 290 289 288 287 286 285 285 285 285 285 285 285 284 284 284 284 284
298 299 300 299 298 298 298 299 298 297 298 298 297 296 299 296 299 297 298 297 297 299 298 299 295 292 290 289 287 287 286 285 285 285 285 285 284 284 284 284 284 284 284 283
297 297 297 296 295 295 294 295 297 296 297 295 296 296 297 296 297 297 297 297 299 299 300 296 293 290 289 288 287 286 286 285 285 285 284 284 284 284 284 284 284 284 283 283
296 295 297 295 297 296 296 296 296 294 294 294 296 297 298 297 298 297 298 299 299 298 293 293 290 289 288 287 286 285 285 285 285 284 284 284 284 284 284 284 284 283 283 283
296 294 292 294 295 295 295 296 295 291 295 295 296 296 297 296 297 297 297 298 292 292 291 290 288 287 286 285 285 285 285 285 285 284 284 284 284 284 284 283 283 283 283 282
Wind_Speed
56 52 50 50 43 46 31 9 3 8 2 4 1 5 6 3 4 0 4 4 3 5 4 4 3 7 2 5 6 6 2 5 4 1 1 2 1 2 5 3 5 1 1 4
62 58 51 53 50 55 30 3 3 1 3 4 3 3 1 1 3 4 4 4 3 2 5 4 3 4 2 5 4 8 7 2 3 0 1 2 3 1 3 3 2 7 4 2
58 59 56 55 60 50 30 4 3 3 3 2 6 7 4 2 2 3 4 5 4 4 3 4 5 3 0 1 2 8 6 3 3 5 3 4 4 4 2 2 3 5 6 2
57 62 57 62 67 48 25 2 4 4 5 4 5 10 13 12 6 1 3 3 4 6 4 2 4 3 3 2 5 3 3 4 3 1 1 3 4 5 10 8 3 6 2 7
66 64 66 69 68 46 9 5 5 2 4 8 9 11 8 20 5 5 4 4 5 4 7 8 9 8 4 5 2 2 1 4 3 2 2 2 4 7 10 13 7 11 4 6
67 66 68 71 72 44 9 5 6 6 7 8 7 8 8 12 5 1 2 7 6 4 1 4 6 5 7 7 6 3 3 6 3 2 1 1 7 11 15 8 6 7 9 4
69 66 68 71 69 44 23 13 9 4 5 11 15 12 7 13 9 7 2 4 6 4 16 11 11 14 13 12 10 3 5 4 2 2 2 2 1 2 7 12 5 11 3 6
66 66 72 79 66 44 31 22 9 4 3 8 12 13 8 7 4 3 3 3 2 22 3 4 5 4 4 5 8 6 1 4 3 3 3 4 2 3 6 6 3 13 10 8
67 68 73 68 58 39 31 21 18 6 7 8 6 13 7 5 4 2 3 4 11 4 3 3 4 4 4 2 3 3 5 6 3 3 3 5 0 1 4 3 3 8 10 14
68 66 73 58 48 37 30 18 21 9 4 1 7 7 12 5 3 4 4 6 3 1 2 3 3 3 2 6 8 5 2 2 4 2 3 6 2 1 4 3 1 8 10 14
67 74 72 57 48 40 35 18 23 8 3 1 1 3 6 4 3 5 6 4 2 2 3 3 3 3 4 3 5 5 7 6 4 3 2 7 1 3 4 1 3 8 9 6
68 73 66 56 50 43 34 20 27 11 6 3 5 8 5 1 4 6 2 2 5 5 4 1 3 3 3 5 4 2 4 4 5 7 3 2 2 2 2 1 5 5 9 8
67 71 64 55 51 37 33 27 34 8 4 4 5 2 3 3 2 6 5 2 4 3 1 4 2 3 3 5 4 3 3 3 2 3 3 1 2 3 3 4 9 9 12 9
69 66 58 58 51 40 35 26 24 12 8 4 0 5 3 8 6 11 3 9 9 8 2 3 2 3 3 3 2 2 2 7 5 1 2 5 4 6 9 11 12 13 11 8
67 64 57 56 44 36 31 22 19 24 6 4 3 1 15 10 8 10 12 17 6 2 3 2 2 2 3 1 1 2 3 4 5 3 7 3 7 8 11 10 8 9 11 9
68 61 58 48 41 35 33 5 12 11 9 4 3 1 5 14 22 25 18 10 4 3 3 2 2 1 1 3 3 2 1 1 1 3 6 10 14 11 9 11 13 12 12 10
68 58 50 42 38 35 9 7 15 15 9 3 4 2 4 7 6 5 5 8 3 3 2 3 2 1 1 2 2 4 3 5 10 13 16 12 8 7 14 17 14 14 13 12
65 53 43 35 36 24 12 19 23 12 11 6 4 2 1 6 2 2 6 3 3 5 2 1 2 1 1 2 6 9 11 13 11 6 11 16 19 17 15 14 14 14 11 7
59 47 43 35 18 6 8 17 15 9 6 4 3 5 3 2 2 2 3 2 3 1 2 1 1 1 2 3 14 14 14 6 14 16 19 18 15 12 14 14 11 9 5 5
60 43 11 3 6 29 18 4 3 4 3 3 3 2 4 2 1 2 2 2 2 2 1 1 2 1 1 4 10 10 13 17 20 17 12 13 12 10 9 10 8 6 3 3
25 4 3 19 22 6 4 3 3 0 3 2 2 2 5 1 3 3 2 2 1 2 2 2 2 2 3 7 12 15 18 16 14 18 16 14 15 12 10 7 5 3 3 5
17 26 19 9 4 3 5 1 1 1 4 2 4 3 3 2 3 3 1 3 1 2 4 2 2 2 8 12 15 16 21 23 21 20 19 16 14 11 9 5 3 3 4 7
39 9 5 3 3 5 6 7 2 3 4 4 4 4 3 2 3 3 3 3 2 5 2 3 1 8 10 12 13 17 21 22 21 18 16 14 11 8 6 4 4 5 6 8
5 5 5 3 4 4 3 4 5 3 6 10 5 4 3 2 3 2 4 1 4 3 3 4 6 13 13 12 18 20 16 18 18 16 13 11 8 7 6 5 5 7 9 12
4 3 4 2 3 3 3 3 4 2 9 6 5 4 3 3 4 1 4 3 4 5 3 3 9 14 14 14 15 18 17 17 14 13 13 11 9 8 5 5 7 8 9 13
4 5 4 3 5 3 3 5 7 2 5 3 4 4 3 2 5 4 5 7 5 2 3 8 13 15 13 13 18 18 17 15 14 12 9 7 4 3 5 5 8 10 11 17
4 3 3 2 5 4 3 4 5 4 3 3 3 4 2 4 3 5 3 3 2 7 8 9 15 15 14 20 19 17 16 15 12 10 8 6 3 2 3 8 13 13 15 20
Wind_Direction
208 208 205 179 170 166 158 119 117 169 231 81 94 141 182 242 194 195 120 111 110 151 156 132 144 174 185 169 153 138 135 116 133 250 34 46 128 214 172 156 190 191 353 270
205 198 202 175 171 166 154 97 104 3 24 139 156 140 105 274 183 185 149 128 149 127 142 128 122 136 329 163 150 153 175 121 108 139 225 360 216 134 90 93 87 191 168 232
195 201 191 172 171 168 150 109 105 347 53 301 144 137 139 263 261 191 115 113 88 108 101 31 137 125 179 351 108 119 108 114 176 193 160 129 176 185 197 144 166 169 225 166
197 193 193 171 173 170 161 84 179 178 166 224 159 158 159 199 216 211 148 104 188 148 122 90 124 125 130 40 146 64 126 128 118 188 172 158 170 166 187 202 193 206 148 200
192 193 191 172 174 176 145 123 132 78 164 137 148 169 187 188 167 149 202 173 161 152 154 188 186 142 185 186 158 135 46 141 141 126 164 230 250 203 203 217 237 256 242 248
192 188 190 173 176 179 130 125 123 116 151 170 165 187 164 187 150 155 211 168 123 150 186 93 85 75 97 127 137 128 127 138 143 186 59 293 280 222 196 190 194 207 218 233
188 184 183 171 182 178 174 149 129 109 170 179 193 167 156 165 183 163 129 107 110 132 137 102 68 63 67 65 52 83 135 107 89 142 128 214 261 145 199 216 201 199 172 166
182 186 179 176 179 176 175 157 153 125 120 184 163 166 150 102 90 83 102 13 334 156 118 84 71 6 25 23 41 17 40 123 102 159 207 305 198 190 169 188 249 194 190 152
183 183 175 178 184 173 171 155 152 103 119 209 153 161 157 144 127 78 75 31 102 49 84 84 139 178 165 155 86 47 66 65 103 154 188 218 157 221 177 184 280 174 168 161
184 186 173 179 176 181 175 152 156 113 105 257 140 167 181 123 114 108 119 152 187 72 84 95 143 170 152 161 166 170 129 50 141 144 240 284 203 69 170 176 314 149 163 163
184 176 170 171 170 173 164 139 155 121 89 25 34 124 149 129 152 142 169 99 289 65 83 136 175 139 195 133 154 177 172 151 170 120 198 263 150 127 198 23 98 129 129 132
172 168 165 167 174 167 151 134 161 170 85 129 97 87 85 171 165 125 37 158 163 170 101 156 116 140 170 153 198 172 204 187 177 193 210 46 352 332 8 233 138 123 119 121
163 160 163 166 167 156 159 147 162 160 114 57 60 360 29 86 181 164 121 283 156 159 126 146 138 135 145 163 219 135 221 160 138 157 174 162 74 83 85 126 109 110 119 119
159 157 159 162 159 154 159 162 184 124 105 106 323 47 18 344 203 187 190 143 122 106 89 101 125 123 211 175 135 173 180 150 151 84 175 121 85 112 119 106 102 99 92 98
155 157 157 158 157 165 166 140 129 134 115 136 137 133 35 55 126 148 145 132 108 113 87 75 109 119 129 53 124 189 188 155 182 213 167 120 145 135 124 113 112 114 116 98
152 149 151 153 159 160 139 62 122 185 162 106 101 240 8 39 79 75 65 63 64 80 103 103 86 40 117 137 187 103 122 199 233 151 122 107 121 113 110 108 113 106 100 106
147 143 144 147 155 151 128 167 162 169 116 93 103 79 357 1 38 46 36 47 70 75 99 64 122 91 66 109 181 137 111 115 114 118 110 95 103 112 105 104 104 98 90 88
144 138 141 137 137 114 81 114 140 146 95 72 102 71 61 15 46 76 3 53 37 25 103 105 94 99 21 164 130 129 124 116 101 71 91 110 109 100 98 100 96 84 80 80
138 133 121 115 113 74 124 119 123 100 85 112 110 137 158 49 55 50 42 35 70 306 94 94 130 118 220 172 154 151 148 123 122 103 102 105 103 104 98 95 89 91 77 39
135 117 79 92 144 132 129 82 35 27 9 43 89 128 122 106 143 93 94 27 99 107 56 113 70 174 354 188 157 137 126 127 126 112 113 117 111 112 106 95 87 76 55 354
127 95 95 123 129 121 45 65 76 109 70 54 115 112 122 17 109 116 24 125 70 114 137 174 190 229 157 133 115 117 116 112 98 106 112 116 120 118 113 104 87 66 28 349
131 121 116 111 71 61 88 74 129 155 157 141 119 128 115 111 118 99 42 98 112 147 140 123 223 138 136 127 116 111 112 110 106 109 111 110 110 112 113 107 77 31 359 351
117 82 67 80 23 83 154 176 189 131 163 155 148 113 119 119 74 76 89 106 152 133 152 219 156 136 127 125 116 108 110 109 113 113 111 110 106 98 91 75 49 16 354 353
71 79 100 140 165 197 180 151 152 145 133 135 111 95 104 118 69 120 119 102 146 172 209 223 154 150 132 125 121 118 121 120 117 116 113 106 97 84 70 47 16 1 353 344
80 83 105 137 114 65 110 109 103 98 134 126 115 72 84 72 111 110 117 143 211 214 225 136 142 135 129 125 124 125 123 125 122 122 115 107 86 62 45 19 1 349 342 343
66 52 83 90 93 94 70 108 119 111 131 99 62 97 89 111 126 147 196 171 210 188 120 129 130 128 126 127 125 129 134 129 122 114 108 106 98 38 7 350 344 341 344 339
55 52 29 66 80 98 105 132 119 139 76 87 109 103 134 117 143 170 190 188 101 130 119 129 129 129 128 126 128 131 130 128 123 119 117 105 65 14 353 347 342 337 334 333